Location: Newark
(54.6833°N, 25.2833°E)
Time: 22:59:21
(UTC+00:00)

Tiros 1 despin weight - Pass Details

Date: 23 November 2019
Orbit: 594 x 642 km, 48.2° (Epoch: 08 December)

Event Time Altitude Azimuth Distance (km) Brightness Sun altitude
Rises 12:01:28 0° 246° (WSW) 2,826 ? 11.0°
Reaches altitude 10° 12:03:53 10° 237° (WSW) 1,926 ? 10.8°
Maximum altitude 12:07:52 34° 172° (S) 988 ? 10.5°
Drops below altitude 10° 12:11:53 10° 108° (ESE) 1,941 ? 10.2°
Sets 12:14:20 0° 99° (E) 2,851 ? 10.1°
